Location: Fort Wayne
(41.1310°N, 85.1290°W)
Time: 01:04:32
(UTC-04:00)

Amateur Radio Satellites - All Passes

Search period start: 31 July 2015 00:34
Search period end: 01 August 2015 00:34
Location: Fort Wayne, 41.1310°N, 85.1290°W

Satellite Date Start Highest point End Downlink Frequencies (MHz)
Time Altitude Azimuth
CUBEBUG 1 31 Jul 00:35:29 00:39:48 60° 259° (W) 00:44:08 437.445
BEESAT 3 31 Jul 00:37:15 00:41:06 44° 118° (ESE) 00:45:02 437.485
UNISAT 6 31 Jul 00:39:33 00:44:10 61° 286° (WNW) 00:48:49 437.425
AUBIESAT-1 31 Jul 00:45:36 00:49:11 21° 299° (WNW) 00:52:38 437.475
HUMSAT D 31 Jul 00:45:46 00:47:00 11° 272° (W) 00:47:59 437.325/437.525
DX 1 31 Jul 00:49:41 00:52:11 14° 270° (W) 00:54:29 434.975-435.025
POLYITAN 1 31 Jul 00:52:45 00:57:02 76° 102° (ESE) 01:01:19 437.675
50 SAT 31 Jul 00:54:44 00:57:12 16° 269° (W) 00:59:32 437.505
VELOX 1 31 Jul 00:57:13 01:00:37 21° 267° (W) 01:03:55 145.980
AIST 1 31 Jul 00:59:51 01:03:52 40° 267° (W) 01:07:50
ESTCUBE 1 31 Jul 01:02:14 01:06:08 27° 265° (W) 01:10:00 437.505/2401.250
POPSAT HIP 1 31 Jul 01:10:30 01:14:44 70° 285° (WNW) 01:18:58 437.405
SPROUT 31 Jul 01:17:19 01:21:34 72° 258° (WSW) 01:25:51 437.525
QB50P2 31 Jul 01:17:49 01:22:00 55° 286° (WNW) 01:26:10 145.880/145.840
AIST 2 31 Jul 01:18:37 01:21:49 22° 113° (ESE) 01:25:08 435.215
BUGSAT 1 31 Jul 01:22:39 01:26:44 82° 284° (WNW) 01:30:50 437.445
TIGRISAT 31 Jul 01:24:15 01:28:00 23° 292° (WNW) 01:31:39 435.000
ANTELSAT 31 Jul 01:25:28 01:29:07 22° 293° (WNW) 01:32:41 437.575/2403.000
BEESAT 31 Jul 01:31:17 01:34:32 19° 65° (ENE) 01:37:57 436.000
BEESAT 2 31 Jul 01:32:47 01:36:51 60° 305° (NW) 01:40:56 435.950
ISS 31 Jul 01:32:49 01:34:35 14° 354° (N) 01:36:20 145.825
PHONESAT 2.4 31 Jul 01:32:54 01:36:22 58° 194° (SSW) 01:39:48 2401.200-2431.200
TISAT 1 31 Jul 01:35:06 01:39:16 72° 258° (WSW) 01:43:27 437.305
DUCHIFAT 1 31 Jul 01:44:29 01:48:13 30° 290° (WNW) 01:51:55 145.980
VERMONT LUNAR 31 Jul 01:45:27 01:46:18 11° 213° (SSW) 01:47:04 437.305
QB50P1 31 Jul 01:46:39 01:50:20 28° 290° (WNW) 01:53:56 145.935-145.965
NANOSAT C BR1 31 Jul 01:48:33 01:52:09 27° 291° (WNW) 01:55:43 145.865
SWISSCUBE 31 Jul 01:50:33 01:54:43 31° 69° (ENE) 01:58:58 437.505
O/OREOS (USA 219) 31 Jul 01:58:36 02:01:50 20° 102° (ESE) 02:05:13 437.305
Cosmos 2491 31 Jul 02:00:56 02:08:45 37° 273° (W) 02:16:22 435.465 / 435.565
ITUPSAT 1 31 Jul 02:10:23 02:14:56 44° 71° (ENE) 02:19:31 437.325
BEESAT 3 31 Jul 02:16:11 02:19:17 20° 316° (NW) 02:22:19 437.485
YUBILEINY 31 Jul 02:21:29 02:30:06 62° 282° (WNW) 02:38:46 435.215
POLYITAN 1 31 Jul 02:31:26 02:32:24 10° 297° (WNW) 02:33:07 437.675
RS-15 31 Jul 02:39:53 02:48:22 23° 346° (NNW) 02:56:59 29.354- 29.394
KKS-1 31 Jul 02:46:40 02:49:30 18° 66° (ENE) 02:52:31 437.445
AIST 2 31 Jul 02:56:11 03:00:11 38° 309° (NW) 03:04:11 435.215
Oscar 19 31 Jul 03:02:38 03:07:47 63° 101° (E) 03:12:56 437.125/150
BEESAT 31 Jul 03:07:24 03:12:03 49° 261° (W) 03:16:42 436.000
ISS 31 Jul 03:09:45 03:11:58 17° 14° (NNE) 03:14:14 145.825
PHONESAT 2.4 31 Jul 03:11:25 03:13:57 19° 209° (SSW) 03:16:26 2401.200-2431.200
JAS-2 31 Jul 03:26:36 03:31:32 19° 85° (E) 03:36:51 435.910
SWISSCUBE 31 Jul 03:28:26 03:32:35 28° 265° (W) 03:36:41 437.505
Cosmos 2504 31 Jul 03:29:53 03:36:32 48° 90° (E) 03:43:44 435.465 / 435.565
O/OREOS (USA 219) 31 Jul 03:36:52 03:41:02 37° 299° (WNW) 03:45:14 437.305
ITUPSAT 1 31 Jul 03:49:28 03:53:03 20° 268° (W) 03:56:30 437.325
Gurwin Techsat 1B 31 Jul 03:50:37 03:55:49 53° 99° (E) 04:01:00 435.225
STARS 31 Jul 03:58:00 04:02:17 59° 74° (ENE) 04:06:36 437.465
ITAMSAT 1 31 Jul 04:20:39 04:25:52 88° 111° (ESE) 04:31:02 435.822/435.867
KKS-1 31 Jul 04:21:35 04:25:50 45° 261° (W) 04:30:06 437.445
YUBILEINY 31 Jul 04:26:03 04:29:18 12° 307° (NW) 04:31:54 435.215
Oscar 19 31 Jul 04:43:18 04:46:41 17° 297° (WNW) 04:49:53 437.125/150
ISS 31 Jul 04:45:40 04:48:55 63° 33° (NNE) 04:52:09 145.825
RS-15 31 Jul 04:57:03 05:06:08 26° 21° (NNE) 05:15:43 29.354- 29.394
MOZHAYETS 4 31 Jul 05:02:16 05:06:47 55° 74° (ENE) 05:11:22
DANDE 31 Jul 05:05:41 05:08:04 18° 97° (E) 05:10:13 436.750
JAS-2 31 Jul 05:09:42 05:17:34 89° 284° (WNW) 05:25:22 435.910
AO-7 31 Jul 05:11:10 05:19:00 44° 99° (E) 05:26:52 29.400- 29.500
HORYU 2 31 Jul 05:18:38 05:23:00 47° 100° (E) 05:27:20 437.375
Cosmos 2504 31 Jul 05:22:48 05:29:04 31° 291° (WNW) 05:35:35 435.465 / 435.565
Gurwin Techsat 1B 31 Jul 05:31:31 05:35:27 21° 296° (WNW) 05:39:13 435.225
CUSAT 1 31 Jul 05:34:25 05:37:26 84° 279° (W) 05:40:05 437.405
STARS 31 Jul 05:37:16 05:39:11 12° 271° (W) 05:40:52 437.465
ITAMSAT 1 31 Jul 06:02:28 06:04:42 12° 300° (WNW) 06:06:41 435.822/435.867
ISS 31 Jul 06:23:08 06:25:02 14° 229° (SW) 06:26:51 145.825
MOZHAYETS 4 31 Jul 06:41:43 06:44:25 15° 271° (W) 06:46:56
DANDE 31 Jul 06:49:26 06:51:07 13° 286° (WNW) 06:52:34 436.750
CUBESAT XI-V 31 Jul 06:52:43 06:57:22 68° 75° (ENE) 07:02:02 437.345
STRAND 1 31 Jul 06:53:25 06:57:29 25° 66° (ENE) 07:01:39 437.568
PRISM 31 Jul 06:55:52 06:58:35 17° 66° (ENE) 07:01:24 437.425
JAS-2 31 Jul 06:56:13 07:01:43 21° 301° (WNW) 07:06:57 435.910
HORYU 2 31 Jul 06:56:14 06:59:17 18° 295° (WNW) 07:02:11 437.375
GONETS M04 31 Jul 07:02:35 07:11:05 62° 92° (E) 07:19:37
AO-7 31 Jul 07:04:03 07:11:49 43° 298° (WNW) 07:19:25 29.400- 29.500
RS-15 31 Jul 07:09:59 07:21:37 63° 50° (NE) 07:33:43 29.354- 29.394
CUTE-I 31 Jul 07:18:33 07:23:07 29° 95° (E) 07:27:44 437.470
Cosmos 2499 31 Jul 07:40:38 07:45:53 22° 82° (E) 07:51:42 435.465 / 435.565
Cubesat XI-IV 31 Jul 08:01:43 08:07:04 74° 102° (ESE) 08:12:23 437.490
BEESAT 2 31 Jul 08:16:01 08:17:08 11° 37° (NE) 08:18:24 435.950
PRISM 31 Jul 08:29:45 08:33:44 41° 261° (W) 08:37:42 437.425
STRAND 1 31 Jul 08:31:37 08:36:29 41° 262° (W) 08:41:20 437.568
CUBESAT XI-V 31 Jul 08:33:24 08:35:22 12° 272° (W) 08:37:04 437.345
BEESAT 3 31 Jul 08:55:53 08:59:23 28° 48° (NE) 09:02:53 437.485
CUTE-I 31 Jul 08:58:26 09:03:16 35° 292° (WNW) 09:08:01 437.470
GONETS M04 31 Jul 09:01:10 09:08:36 29° 293° (WNW) 09:15:48
CANX-2 31 Jul 09:06:19 09:08:09 13° 88° (E) 09:10:12 2200.000
RS-15 31 Jul 09:22:59 09:33:46 41° 251° (WSW) 09:44:36 29.354- 29.394
BRITE-PL 31 Jul 09:23:14 09:27:34 67° 101° (E) 09:32:13 437.365/2234.400
PCSat 31 Jul 09:24:35 09:28:35 22° 108° (ESE) 09:32:44 145.827
M-CUBED/EXP-1 PRIME 31 Jul 09:27:31 09:31:02 30° 64° (ENE) 09:34:53 437.505
Cosmos 2499 31 Jul 09:30:57 09:38:16 67° 281° (W) 09:46:12 435.465 / 435.565
DOVE 4 31 Jul 09:33:56 09:38:03 32° 96° (E) 09:42:24 437.250
GOMX 1 31 Jul 09:39:44 09:44:10 59° 100° (E) 09:48:56 467.674
AIST 2 31 Jul 09:40:05 09:42:52 17° 42° (NE) 09:45:42 435.215
Cubesat XI-IV 31 Jul 09:43:27 09:46:36 16° 299° (WNW) 09:49:32 437.490
BEESAT 2 31 Jul 09:51:50 09:55:56 79° 56° (NE) 09:59:57 435.950
CINEMA 3 31 Jul 09:51:51 09:55:30 23° 93° (E) 09:59:23 145.822/145.860
HO-68 31 Jul 09:54:25 10:01:17 47° 99° (E) 10:08:10 435.675
AUBIESAT-1 31 Jul 09:57:29 10:01:25 55° 68° (ENE) 10:05:42 437.475
UNISAT 6 31 Jul 10:04:50 10:06:25 12° 63° (ENE) 10:08:13 437.425
SO-50 31 Jul 10:14:26 10:18:52 42° 116° (ESE) 10:23:29 436.795
UWE-3 31 Jul 10:17:37 10:20:13 15° 90° (E) 10:23:03 435.000/436.395/437.385
COMPASS 1 31 Jul 10:17:44 10:21:48 45° 98° (E) 10:25:51 437.405
FUNcube-1 31 Jul 10:19:33 10:20:49 11° 87° (E) 10:22:24 145.935
CUBEBUG 2 31 Jul 10:29:54 10:33:46 26° 94° (E) 10:37:47 437.445
SEEDS 31 Jul 10:30:51 10:35:09 84° 102° (ESE) 10:39:23 437.485
CUTE 1.7 + AOD 2 31 Jul 10:31:58 10:36:18 77° 282° (WNW) 10:40:34 437.475
Oscar 11 31 Jul 10:32:28 10:36:03 25° 94° (E) 10:39:41 145.826/435.025
BEESAT 3 31 Jul 10:33:49 10:37:17 27° 246° (WSW) 10:40:39 437.485
YUBILEINY 31 Jul 10:37:41 10:41:17 13° 54° (NE) 10:45:31 435.215
QB50P2 31 Jul 10:38:46 10:39:09 10° 63° (ENE) 10:39:46 145.880/145.840
CANX-2 31 Jul 10:40:16 10:44:30 55° 286° (WNW) 10:48:41 2200.000
TIGRISAT 31 Jul 10:46:07 10:49:54 30° 70° (ENE) 10:53:48 435.000
ANTELSAT 31 Jul 10:47:21 10:51:12 33° 70° (ENE) 10:55:13 437.575/2403.000
HUMSAT D 31 Jul 10:53:49 10:54:06 10° 87° (E) 10:54:42 437.325/437.525
DELFI C3 31 Jul 10:53:53 10:57:23 28° 95° (E) 11:00:54 145.870
AAUSAT CUBESAT 2 31 Jul 11:00:03 11:04:15 68° 285° (WNW) 11:08:24 437.432
DUCHIFAT 1 31 Jul 11:02:02 11:04:44 17° 66° (ENE) 11:07:34 145.980
M-CUBED/EXP-1 PRIME 31 Jul 11:02:36 11:05:53 23° 263° (W) 11:09:18 437.505
BRITE-PL 31 Jul 11:03:56 11:05:45 12° 295° (WNW) 11:07:23 437.365/2234.400
QB50P1 31 Jul 11:04:14 11:07:10 19° 67° (ENE) 11:10:13 145.935-145.965
NANOSAT C BR1 31 Jul 11:05:51 11:08:49 20° 67° (ENE) 11:11:54 145.865
PCSat 31 Jul 11:06:23 11:11:40 52° 304° (NW) 11:16:59 145.827
DOVE 4 31 Jul 11:11:54 11:15:44 26° 290° (WNW) 11:19:39 437.250
AIST 2 31 Jul 11:17:41 11:21:49 58° 241° (WSW) 11:25:51 435.215
GOMX 1 31 Jul 11:19:29 11:22:00 14° 294° (WNW) 11:24:24 467.674
CINEMA 3 31 Jul 11:28:30 11:32:48 37° 288° (WNW) 11:37:13 145.822/145.860
Cosmos 2499 31 Jul 11:30:41 11:33:33 12° 306° (NW) 11:35:55 435.465 / 435.565
ZACube-1 31 Jul 11:30:57 11:35:30 71° 101° (E) 11:40:05 437.345
AUBIESAT-1 31 Jul 11:34:41 11:36:39 13° 268° (W) 11:38:26 437.475
UNISAT 6 31 Jul 11:38:20 11:42:39 69° 260° (W) 11:47:05 437.425
HO-68 31 Jul 11:42:28 11:48:51 35° 297° (WNW) 11:55:06 435.675
POLYITAN 1 31 Jul 11:45:30 11:49:35 55° 74° (ENE) 11:53:43 437.675
UWE-3 31 Jul 11:52:37 11:57:06 53° 286° (WNW) 12:01:37 435.000/436.395/437.385
FUNcube-1 31 Jul 11:53:09 11:57:40 70° 285° (WNW) 12:02:13 145.935
COMPASS 1 31 Jul 11:54:28 11:57:08 16° 294° (WNW) 11:59:38 437.405
SO-50 31 Jul 11:55:27 11:59:35 27° 315° (NW) 12:03:47 436.795
POPSAT HIP 1 31 Jul 12:02:53 12:07:04 86° 79° (ENE) 12:11:18 437.405
CUBEBUG 2 31 Jul 12:06:22 12:10:28 31° 289° (WNW) 12:14:35 437.445
O/OREOS (USA 219) 31 Jul 12:07:19 12:11:39 40° 62° (ENE) 12:15:59 437.305
AISAT 31 Jul 12:07:23 12:11:09 28° 95° (E) 12:14:59 437.250
Oscar 11 31 Jul 12:08:26 12:12:13 29° 290° (WNW) 12:15:56 145.826/435.025
UKube-1 31 Jul 12:09:12 12:13:19 43° 99° (E) 12:17:27 .
QB50P2 31 Jul 12:10:17 12:14:29 76° 258° (WSW) 12:18:43 145.880/145.840
BUGSAT 1 31 Jul 12:12:24 12:16:25 67° 75° (ENE) 12:20:26 437.445
TIGRISAT 31 Jul 12:23:10 12:26:42 23° 267° (W) 12:30:12 435.000
ANTELSAT 31 Jul 12:24:39 12:28:05 22° 267° (W) 12:31:30 437.575/2403.000
CUBEBUG 1 31 Jul 12:24:50 12:28:18 24° 94° (E) 12:31:51 437.445
HUMSAT D 31 Jul 12:26:05 12:30:24 70° 285° (WNW) 12:34:41 437.325/437.525
50 SAT 31 Jul 12:28:18 12:32:13 57° 100° (E) 12:36:08 437.505
DELFI C3 31 Jul 12:29:06 12:32:20 23° 291° (WNW) 12:35:29 145.870
YUBILEINY 31 Jul 12:31:30 12:40:18 68° 79° (E) 12:49:06 435.215
DX 1 31 Jul 12:35:38 12:39:59 85° 284° (WNW) 12:44:19 434.975-435.025
DUCHIFAT 1 31 Jul 12:36:19 12:40:16 40° 262° (W) 12:44:13 145.980
QB50P1 31 Jul 12:38:56 12:42:49 36° 263° (W) 12:46:42 145.935-145.965
NANOSAT C BR1 31 Jul 12:40:35 12:44:26 35° 263° (W) 12:48:18 145.865
Oscar 19 31 Jul 12:44:14 12:45:51 12° 60° (ENE) 12:47:45 437.125/150
VELOX 1 31 Jul 12:46:18 12:50:42 73° 102° (ESE) 12:55:06 145.980
ESTCUBE 1 31 Jul 12:54:07 12:58:35 62° 101° (E) 13:03:01 437.505/2401.250
PCSat 31 Jul 12:55:11 12:56:29 11° 326° (NNW) 12:57:33 145.827
Cosmos 2491 31 Jul 13:04:27 13:12:52 55° 91° (E) 13:21:20 435.465 / 435.565
SPROUT 31 Jul 13:04:45 13:07:50 20° 92° (E) 13:11:03 437.525
ZACube-1 31 Jul 13:09:17 13:11:21 13° 296° (WNW) 13:13:12 437.345
Cosmos 2504 31 Jul 13:16:26 13:21:20 17° 60° (ENE) 13:26:47 435.465 / 435.565
TISAT 1 31 Jul 13:20:30 13:23:17 17° 92° (E) 13:26:11 437.305
POLYITAN 1 31 Jul 13:24:07 13:25:55 12° 271° (W) 13:27:30 437.675
AIST 1 31 Jul 13:28:35 13:32:56 71° 279° (W) 13:37:16
Gurwin Techsat 1B 31 Jul 13:36:09 13:37:39 11° 59° (ENE) 13:39:26 435.225
AISAT 31 Jul 13:43:56 13:47:40 27° 291° (WNW) 13:51:20 437.250
UKube-1 31 Jul 13:46:14 13:49:09 17° 294° (WNW) 13:51:56 .
O/OREOS (USA 219) 31 Jul 13:47:26 13:50:49 20° 258° (WSW) 13:54:04 437.305
CUBEBUG 1 31 Jul 14:00:53 14:04:41 29° 290° (WNW) 14:08:24 437.445
ITAMSAT 1 31 Jul 14:01:25 14:04:42 18° 63° (ENE) 14:08:10 435.822/435.867
50 SAT 31 Jul 14:04:46 14:06:21 12° 295° (WNW) 14:07:46 437.505
ITUPSAT 1 31 Jul 14:13:38 14:14:44 11° 87° (E) 14:16:08 437.325
Oscar 19 31 Jul 14:19:25 14:24:31 89° 84° (E) 14:29:42 437.125/150
AO-7 31 Jul 14:22:57 14:26:35 14° 47° (NE) 14:30:40 29.400- 29.500
VELOX 1 31 Jul 14:25:08 14:26:44 12° 297° (WNW) 14:28:06 145.980
YUBILEINY 31 Jul 14:29:30 14:36:30 26° 277° (W) 14:43:09 435.215
ESTCUBE 1 31 Jul 14:32:39 14:34:59 14° 296° (WNW) 14:37:08 437.505/2401.250
SPROUT 31 Jul 14:40:07 14:44:04 35° 289° (WNW) 14:47:58 437.525
TISAT 1 31 Jul 14:55:18 14:59:14 38° 288° (WNW) 15:03:08 437.305
Cosmos 2491 31 Jul 15:02:26 15:10:12 33° 292° (WNW) 15:17:47 435.465 / 435.565
Cosmos 2504 31 Jul 15:06:34 15:15:01 81° 82° (E) 15:23:40 435.465 / 435.565
BEESAT 31 Jul 15:07:37 15:12:09 42° 98° (E) 15:16:40 436.000
Gurwin Techsat 1B 31 Jul 15:11:34 15:16:53 82° 77° (ENE) 15:22:14 435.225
JAS-2 31 Jul 15:21:57 15:27:33 40° 66° (ENE) 15:33:54 435.910
SWISSCUBE 31 Jul 15:27:53 15:32:41 75° 102° (ESE) 15:37:26 437.505
ITAMSAT 1 31 Jul 15:38:36 15:43:46 62° 259° (WSW) 15:48:57 435.822/435.867
DANDE 31 Jul 15:42:17 15:44:52 18° 75° (ENE) 15:48:04 436.750
ITUPSAT 1 31 Jul 15:48:29 15:53:18 76° 284° (WNW) 15:58:02 437.325
STARS 31 Jul 15:50:18 15:51:16 11° 88° (E) 15:52:30 437.465
Oscar 19 31 Jul 16:04:17 16:04:43 10° 274° (W) 16:04:47 437.125/150
CUSAT 1 31 Jul 16:06:58 16:11:00 59° 79° (E) 16:16:23 437.405
AO-7 31 Jul 16:09:43 16:17:51 60° 66° (ENE) 16:26:03 29.400- 29.500
KKS-1 31 Jul 16:12:40 16:16:42 33° 97° (E) 16:20:45 437.445
HORYU 2 31 Jul 16:16:43 16:20:54 43° 72° (ENE) 16:25:09 437.375
BEESAT 31 Jul 16:46:06 16:49:44 21° 294° (WNW) 16:53:15 436.000
Gurwin Techsat 1B 31 Jul 16:55:32 16:57:38 12° 273° (W) 16:59:23 435.225
MOZHAYETS 4 31 Jul 16:59:16 17:01:20 13° 88° (E) 17:03:38
Cosmos 2504 31 Jul 17:00:25 17:06:27 21° 278° (W) 17:12:09 435.465 / 435.565
JAS-2 31 Jul 17:07:18 17:12:45 34° 268° (W) 17:18:45 435.910
SWISSCUBE 31 Jul 17:07:46 17:09:59 13° 298° (WNW) 17:11:58 437.505
GONETS M04 31 Jul 17:13:13 17:20:33 30° 67° (ENE) 17:28:06
STARS 31 Jul 17:23:51 17:28:15 68° 285° (WNW) 17:32:38 437.465
DANDE 31 Jul 17:24:32 17:27:55 31° 262° (W) 17:32:11 436.750
Cubesat XI-IV 31 Jul 17:46:18 17:49:29 17° 62° (ENE) 17:52:52 437.490
KKS-1 31 Jul 17:49:36 17:53:11 23° 292° (WNW) 17:56:40 437.445
CUSAT 1 31 Jul 17:51:31 17:53:33 12° 266° (W) 17:55:29 437.405
HORYU 2 31 Jul 17:54:45 17:57:47 17° 269° (W) 18:00:42 437.375
AO-7 31 Jul 18:03:52 18:11:08 31° 266° (W) 18:18:14 29.400- 29.500
PCSat 31 Jul 18:11:38 18:15:39 21° 44° (NE) 18:19:46 145.827
MOZHAYETS 4 31 Jul 18:34:28 18:39:03 61° 286° (WNW) 18:43:35
CUTE-I 31 Jul 18:40:09 18:45:15 48° 71° (ENE) 18:50:25 437.470
SO-50 31 Jul 18:45:52 18:50:32 39° 49° (NE) 18:55:07 436.795
CUBESAT XI-V 31 Jul 18:50:43 18:53:34 17° 90° (E) 18:56:36 437.345
GONETS M04 31 Jul 19:09:28 19:18:00 60° 268° (W) 19:26:30
Cosmos 2499 31 Jul 19:21:10 19:29:29 47° 74° (ENE) 19:38:00 435.465 / 435.565
Cubesat XI-IV 31 Jul 19:23:43 19:29:04 70° 258° (WSW) 19:34:27 437.490
VERMONT LUNAR 31 Jul 19:51:32 19:54:29 35° 159° (SSE) 19:57:26 437.305
PCSat 31 Jul 19:54:13 19:59:36 67° 244° (WSW) 20:04:58 145.827
PRISM 31 Jul 20:12:16 20:15:40 25° 95° (E) 20:19:07 437.425
CUTE-I 31 Jul 20:21:29 20:25:38 22° 268° (W) 20:29:38 437.470
HO-68 31 Jul 20:23:12 20:29:28 36° 64° (ENE) 20:35:51 435.675
SO-50 31 Jul 20:26:45 20:30:56 27° 247° (WSW) 20:34:57 436.795
CUBESAT XI-V 31 Jul 20:26:54 20:31:20 47° 288° (WNW) 20:35:43 437.345
BRITE-PL 31 Jul 20:34:27 20:38:52 76° 76° (ENE) 20:43:05 437.365/2234.400
DOVE 4 31 Jul 20:40:20 20:43:53 28° 70° (ENE) 20:47:30 437.250
STRAND 1 31 Jul 20:41:49 20:46:55 68° 101° (E) 20:51:59 437.568
GOMX 1 31 Jul 20:48:25 20:52:37 61° 74° (ENE) 20:56:42 467.674
CINEMA 3 31 Jul 20:54:40 20:57:28 18° 67° (ENE) 21:00:26 145.822/145.860
COMPASS 1 31 Jul 21:08:52 21:12:33 31° 71° (ENE) 21:16:19 437.405
Cosmos 2499 31 Jul 21:14:35 21:22:34 40° 272° (W) 21:30:31 435.465 / 435.565
UWE-3 31 Jul 21:16:21 21:17:46 12° 63° (ENE) 21:19:24 435.000/436.395/437.385
SEEDS 31 Jul 21:22:28 21:26:37 56° 74° (ENE) 21:30:48 437.485
CUTE 1.7 + AOD 2 31 Jul 21:24:20 21:28:35 74° 76° (ENE) 21:32:54 437.475
ISS 31 Jul 21:25:39 21:27:58 19° 133° (SE) 21:30:22 145.825
Oscar 11 31 Jul 21:27:38 21:30:46 20° 67° (ENE) 21:34:02 145.826/435.025
VERMONT LUNAR 31 Jul 21:27:52 21:31:03 79° 176° (S) 21:34:14 437.305
CUBEBUG 2 31 Jul 21:28:56 21:31:59 20° 67° (ENE) 21:35:11 437.445
CANX-2 31 Jul 21:32:38 21:36:54 80° 258° (WSW) 21:41:13 2200.000
PHONESAT 2.4 31 Jul 21:32:46 21:35:59 34° 158° (SSE) 21:39:12 2401.200-2431.200
RS-15 31 Jul 21:34:51 21:44:13 37° 108° (ESE) 21:54:06 29.354- 29.394
DELFI C3 31 Jul 21:41:35 21:44:19 18° 67° (ENE) 21:47:10 145.870
PRISM 31 Jul 21:47:37 21:51:03 25° 291° (WNW) 21:54:24 437.425
AAUSAT CUBESAT 2 31 Jul 21:50:13 21:54:24 78° 77° (ENE) 21:58:38 437.432
HO-68 31 Jul 22:10:16 22:17:04 46° 261° (W) 22:23:52 435.675
DOVE 4 31 Jul 22:18:26 22:21:44 22° 267° (W) 22:24:56 437.250
STRAND 1 31 Jul 22:22:33 22:25:37 16° 298° (WNW) 22:28:30 437.568
ZACube-1 31 Jul 22:26:54 22:30:57 52° 74° (ENE) 22:35:09 437.345
GOMX 1 31 Jul 22:30:23 22:31:15 10° 272° (W) 22:31:50 467.674
CINEMA 3 31 Jul 22:30:37 22:34:27 36° 263° (W) 22:38:20 145.822/145.860
M-CUBED/EXP-1 PRIME 31 Jul 22:42:44 22:46:49 27° 99° (E) 22:50:51 437.505
COMPASS 1 31 Jul 22:44:57 22:48:17 22° 267° (W) 22:51:32 437.405
FUNcube-1 31 Jul 22:48:41 22:52:52 90° 280° (W) 22:57:10 145.935
UWE-3 31 Jul 22:49:38 22:53:46 64° 259° (W) 22:58:02 435.000/436.395/437.385
SEEDS 31 Jul 23:00:58 23:02:50 12° 272° (W) 23:04:29 437.485
ISS 31 Jul 23:01:00 23:04:10 49° 328° (NNW) 23:07:22 145.825
Oscar 11 31 Jul 23:02:42 23:06:44 36° 263° (W) 23:10:46 145.826/435.025
UKube-1 31 Jul 23:03:54 23:07:52 37° 71° (ENE) 23:11:51 .
VERMONT LUNAR 31 Jul 23:04:35 23:07:44 59° 193° (SSW) 23:10:51 437.305
CUBEBUG 2 31 Jul 23:04:41 23:08:29 33° 264° (W) 23:12:21 437.445
AISAT 31 Jul 23:05:16 23:08:52 26° 68° (ENE) 23:12:33 437.250
PHONESAT 2.4 31 Jul 23:10:15 23:13:46 78° 175° (S) 23:17:17 2401.200-2431.200
50 SAT 31 Jul 23:12:07 23:15:31 30° 71° (ENE) 23:19:00 437.505
AUBIESAT-1 31 Jul 23:12:15 23:16:50 47° 103° (ESE) 23:21:18 437.475
Cosmos 2491 31 Jul 23:15:18 23:22:16 27° 65° (ENE) 23:29:27 435.465 / 435.565
DELFI C3 31 Jul 23:15:22 23:19:08 36° 263° (W) 23:22:55 145.870
HUMSAT D 31 Jul 23:17:25 23:21:32 80° 77° (ENE) 23:25:45 437.325/437.525
CUBEBUG 1 31 Jul 23:21:16 23:24:29 21° 68° (ENE) 23:27:48 437.445
UNISAT 6 31 Jul 23:30:32 23:34:24 26° 94° (E) 23:38:23 437.425
DX 1 31 Jul 23:30:53 23:35:13 82° 76° (ENE) 23:39:34 434.975-435.025
AIST 1 31 Jul 23:36:12 23:39:48 26° 74° (ENE) 23:43:26
YUBILEINY 31 Jul 23:41:21 23:44:58 14° 77° (ENE) 23:49:16 435.215
VELOX 1 31 Jul 23:43:34 23:47:56 64° 74° (ENE) 23:52:18 145.980
RS-15 31 Jul 23:45:11 23:56:02 64° 310° (NW) 00:07:19 29.354- 29.394
BEESAT 2 31 Jul 23:46:49 23:49:02 15° 111° (ESE) 23:51:25 435.950
POPSAT HIP 1 31 Jul 23:49:32 23:51:43 14° 90° (E) 23:54:05 437.405
ESTCUBE 1 31 Jul 23:53:27 23:57:53 56° 73° (ENE) 00:02:21 437.505/2401.250
QB50P2 31 Jul 23:56:34 23:59:23 18° 92° (E) 00:02:21 145.880/145.840
SPROUT 31 Jul 23:59:36 00:02:09 16° 66° (ENE) 00:04:51 437.525
ZACube-1 01 Aug 00:05:44 00:07:45 13° 272° (W) 00:09:34 437.345
TIGRISAT 01 Aug 00:13:29 00:18:11 70° 102° (ESE) 00:22:52 435.000
TISAT 1 01 Aug 00:13:32 00:15:36 14° 65° (ENE) 00:17:51 437.305
ANTELSAT 01 Aug 00:15:06 00:19:49 76° 103° (ESE) 00:24:32 437.575/2403.000
M-CUBED/EXP-1 PRIME 01 Aug 00:17:13 00:21:35 34° 295° (WNW) 00:25:49 437.505
DUCHIFAT 1 01 Aug 00:20:55 00:24:38 30° 96° (E) 00:28:25 145.980
QB50P1 01 Aug 00:23:46 00:27:39 34° 97° (E) 00:31:33 145.935-145.965
NANOSAT C BR1 01 Aug 00:25:09 00:29:02 34° 97° (E) 00:32:57 145.865
BEESAT 3 01 Aug 00:25:21 00:29:16 50° 118° (ESE) 00:33:15 437.485
